loading
|
Showing default

OPS 4467 B, 813

Orbit data source: Space-Track

OPS 4467 B, 813 is an American payload satellite in LEO that was launched on Thu, 18 Jun 1964 UTC via a THOR SLV-2 AGENA D launch vehicle from the Air Force Western Test Range (AFWTR). Payloads include a variety of satellites, spacecraft, and rockets equipped with specific instruments for various scientific and technological missions. These include communications satellites like Starlink; space stations such as the ISS; scientific satellites like the Hubble; Earth observation satellites from companies like Planet Labs, Umbra, and HawkEye 360; GPS; miniature CubeSats for education and research; and military/defense satellites.

Loading next visibility...
Loading greatness...
OPS 4467 B details
Identifier
813, 1964-031B
Orbit
LEO
Last TLE update13 hours ago
Origin
Flag of USNRO/SAFSP (US)
ManufacturerRCA/East Windsor
Mission statusUnknown
MissionDefense Weather
Bus & MotorP35, Unknown motor
Mass50 kg wet, 50 kg dry
Launch date (UTC)
1964-06-18 (60 years ago)
Launch vehicle
THOR SLV-2 AGENA D
Launch site
Air Force Western Test Range (AFWTR)
Object type
Payload
Rocket body
Debris
Radar Cross SectionMedium (>0.1 m² and <1 m²)

Expand to show TLE details & history

TLE from 13 hours ago
0 OPS 4467 B
1 00813U 64031B   24258.80513812  .00000397  00000-0  19824-3 0  9991
2 00813  99.7985 328.5311 0005599 161.9918 198.1456 14.23429354123813
Epoch: 2024-09-14T19:19Z
Definitive object data (Epoch: 2024-09-14T19:19:23.933Z)
Latitude-0.00003°
Longitude44.4238°
Altitude820.488 km
Speed7.441 km/s
True Right ascension21h 54m 07s
True Declination0° 00' 00"
Sunlit
Object was in full shadow at TLE epoch
Predictive object data (real-time)
Latitude0.74541°
Longitude-134.86204°
Altitude812.748 km
Speed7.449 km/s
Apparent Right ascension11h 01m 09s
Apparent Declination-19° 15' 18"
Sunlit
Object is in daylight
Predictive observer data (real-time)
Local Sidereal Time00:36:53
Azimuth51.857° ENE
Elevation-60.859°
Doppler factor1
Orbital elements
Apogee815.013 km
Perigee806.962 km
Semi-major axis7,189.125 km
Eccentricity0.0005599
Inclination99.7985°
RAAN328.5311°
Arg. of periapsis161.9918°
True anomaly198.12563°
Mean anomaly198.1456°
Eccentric anomaly198.13561°
Mean motion3.56065 °/min
BSTAR0.00019824
Period101.11 mins
No data available
Other satellites on launch #31 in the year 1964 (1964-06-18 UTC)

OPS 4467 B Visibility forecast

Observer location: 39.9160978°, -105.1181434

OPS 4467 B is not visible in the next 10 days
Span
Click to sort rows by Start time (UTC) header in descending order
Start Az.
Max El. time (UTC)
Max El. Az.
Max El.
End time (UTC)
End Az.